XW-2E (40909 NORAD) Tracking and Keplerian Element Data

This shows tracking and keplerian element data for the satellite.

Feedback or suggestion? Click here.




ElementValue
Catalog40909
NameXW-2E
Epoch Orbit39729
Epoch Day325.16448409
Epoch Year2022
RAAN332.6231
Inclination97.4646
Eccentricity0.0012487
Argument of Perigee134.4582
Mean Anonmoly290.1621
Mean Motion15.26865018
Decay Rate0.00010795
L11 40909U 15049L 22325.16448409 .00010795 00000+0 41074-3 0 9991
L22 40909 97.4646 332.6231 0012487 134.4582 290.1621 15.26865018397292



Live tracking and technical data element details for XW-2E (NORAD 40909). XW-2E can be tracked NOW for your location showing map with azimuth and elevation plus other details from your city location.







IsCatalogInMostPopularTable: catalog: 40909, numindb: 282
Update: records affected: 1



GetName: 40909 XW-2E

Hit Count: updated at: Mon, 28 Nov 2022 05:54:06 GMT